Weather Roundup
Issued by NWS

Home | Current Version | Previous Version | Text Only | Print | Product List | Glossary On
Versions: 1 2 3 4 5 6 7 8 9 10 11 12 13 14 15 16 17 18 19 20 21 22 23 24 25 26 27 28 29 30 31 32 33 34 35 36 37 38 39 40 41 42 43 44 45 46 47 48 49 50
498
NZUS93 KARX 180810
HRRWXR

CURRENT HOURLY OBSERVATIONS ACROSS
MUCH OF THE UPPER MISSISSIPPI VALLEY
NATIONAL WEATHER SERVICE LA CROSSE WI
300 AM CDT WED OCT 18 2017


...SOUTHEAST MINNESOTA...


CITY           SKY/WX    TMP DP  RH WIND       PRES   REMARKS
ROCHESTER      CLEAR     50  45  83 S15       29.95F
ROCHESTER/MAYO FAIR      54  44  69 S10       29.94F
WINONA         CLEAR     55  45  67 CALM      29.96F
AUSTIN         CLEAR     48  43  81 S8        29.94F
ALBERT LEA     CLEAR     55  46  71 S7        29.93F
DODGE CENTER   CLEAR     52  43  71 S10       29.93F
PRESTON        CLEAR     51  43  75 S10       29.97F
OWATONNA       CLEAR     52  45  76 S14       29.91F
FARIBAULT      CLEAR     48  45  87 S5        29.91S
$$

...ELSEWHERE IN MINNESOTA...


CITY           SKY/WX    TMP DP  RH WIND       PRES   REMARKS
MINNEAPOLIS    CLEAR     58  46  64 SW8       29.87F
INTNL FALLS    CLEAR     56  38  50 S8        29.63F
DULUTH         CLEAR     53  41  63 SW14      29.79F
RED WING       CLEAR     55  41  58 SE3       29.90F
REDWOOD FALLS  CLEAR     54  44  69 S10       29.82F
MANKATO        CLEAR     49  44  83 S9        29.88F
WORTHINGTON    CLEAR     54  44  69 S10       29.88F
FAIRMONT       CLEAR     47  43  86 S7        29.90F
$$

...SOUTHWEST WISCONSIN...


CITY           SKY/WX    TMP DP  RH WIND       PRES   REMARKS
LA CROSSE      CLEAR     57  46  66 S10       29.98F
PRAIRIE DU CHI CLEAR     55  42  60 CALM      30.03S
BOSCOBEL       FOG       43  41  93 CALM      30.04F VSB 1/4
LONE ROCK      CLEAR     48  42  80 SE3       30.05S
PLATTEVILLE    CLEAR     51  45  80 S7        30.06F
FORT MC COY    CLEAR     55  45  69 SW5       30.00F
CAMP DOUGLAS   CLEAR     55  44  66 S9        30.00F
MAUSTON-NEW LI SUNNY     57  44  61 S9        30.00F
VIROQUA        FAIR      54  45  71 S8        30.02S
WIS DELLS      CLEAR     53  41  62 S10       30.04S
$$

...ELSEWHERE IN WISCONSIN...


CITY           SKY/WX    TMP DP  RH WIND       PRES   REMARKS
MILWAUKEE      CLEAR     54  42  64 SW10      30.10F
MADISON        CLEAR     53  42  66 S8        30.07
GREEN BAY      CLEAR     54  47  77 S7        30.01F
EAU CLAIRE     CLEAR     49  43  80 S6        29.92F
BLACK RVR FLS  FAIR      39  39 100 S3        29.97F
MEDFORD        CLEAR     51  43  73 S8        29.95S
WAUSAU         CLEAR     50  44  80 VRB3      29.96F
WIS RAPIDS     CLEAR     49  43  80 S5        30.00F
MARSHFIELD     CLEAR     47  41  80 S8        29.97F
RICE LAKE      CLEAR     47  42  82 SE5       29.91F
$$

...NORTHEAST IOWA...


CITY           SKY/WX    TMP DP  RH WIND       PRES   REMARKS
WATERLOO       CLEAR     50  43  77 S6        30.00F
DUBUQUE        CLEAR     46  42  86 S9        30.06F
DECORAH        CLEAR     55  45  67 S8G15     29.99S
MASON CITY     CLEAR     46  42  86 S9        29.97F
CHARLES CITY   CLEAR     50  46  87 S7        29.99S
OELWEIN        CLEAR     48  45  87 S10       30.02F
$$

...ELSEWHERE IN IOWA...


CITY           SKY/WX    TMP DP  RH WIND       PRES   REMARKS
DES MOINES     CLEAR     57  46  66 S14       30.00F
IOWA CITY      PTCLDY    52  44  74 CALM      30.08F
FORT DODGE     CLEAR     52  45  77 S5        29.95F
MARSHALLTOWN   CLEAR     51  45  79 S8        29.99F
CEDAR RAPIDS   CLEAR     49  44  83 S6        30.05F
$$

...NORTHERN ILLINOIS...


CITY           SKY/WX    TMP DP  RH WIND       PRES   REMARKS
CHICAGO-OHARE  CLEAR     53  40  61 S10       30.14S
CHICAGO-MIDWAY CLEAR     52  40  63 S8        30.16S
MOLINE         CLEAR     53  40  61 S8        30.09F
ROCKFORD       CLEAR     45  40  82 S6        30.13F
PEORIA         CLEAR     47  42  83 S6        30.16R
$$

NOTE: "FAIR" INDICATES FEW OR NO CLOUDS BELOW 12,000 FEET WITH NO
SIGNIFICANT WEATHER AND/OR OBSTRUCTIONS TO VISIBILITY. WIND
SPEEDS ARE IN MILES-PER-HOUR.




USA.gov is the U.S. government's official web portal to all federal, state and local government web resources and services.